Fort Meade, MD

9:56 AM EDT on September 20, 2017 (GMT -0400)
Tipton

Weather History for KFME - October, 2013

Change the Weather History Date:

Friday, October 18, 2013

  Actual Average (KBWI) Record (KBWI)
Temperature  
Mean Temperature 53 °F -  
Max Temperature 64 °F 66 °F 84 °F (2016)
Min Temperature 42 °F 45 °F 30 °F (1982)
Degree Days  
Heating Degree Days 12    
Growing Degree Days 3 (Base 50)    
Moisture  
Dew Point 44 °F    
Average Humidity 75    
Maximum Humidity 100    
Minimum Humidity 40    
Precipitation  
Precipitation 0.00 in - - ()
Sea Level Pressure  
Sea Level Pressure 29.98 in    
Wind  
Wind Speed 5 mph (WNW)    
Max Wind Speed 13 mph    
Max Gust Speed 17 mph    
Visibility 9 miles    
Events      
Averages and records for this station are not official NWS values.
T = Trace of Precipitation, MM = Missing Value Source: NWS Daily Summary

Daily Weather History Graph

Daily Weather History Graph

Search for Another Location

Airport or City:

Trip Planner

Search our weather history database for the weather conditions in past years. The results will help you decide how hot, cold, wet, or windy it might be!

Date:

Astronomy

Oct. 18, 2013 Rise Set
Actual Time 7:19 AM EDT 6:23 PM EDT
Civil Twilight 6:52 AM EDT 6:50 PM EDT
Nautical Twilight 6:21 AM EDT 7:21 PM EDT
Astronomical Twilight 5:50 AM EDT 7:52 PM EDT
Moon 6:12 PM EDT (10/18) 6:53 AM EDT (10/18)
Length of Visible Light 11h 57m
Length of Day
11h 03m
Full, 100% of the Moon is Illuminated
Oct 18
Full
Oct 18
Full
Oct 26
Last Quarter
Nov 3
New
Nov 10
First Quarter

Hourly Weather History & Observations

Time (EDT) Temp. Windchill Dew Point Humidity Pressure Visibility Wind Dir Wind Speed Gust Speed Precip Events Conditions
12:12 AM 59.0 °F - 55.4 °F 88% 29.84 in 10.0 mi West 6.9 mph - N/A   Scattered Clouds
12:33 AM 57.2 °F - 55.4 °F 94% 29.85 in 10.0 mi WNW 5.8 mph - N/A   Clear
12:51 AM 57.2 °F - 53.6 °F 88% 29.86 in 10.0 mi WNW 10.4 mph 16.1 mph N/A   Clear
1:12 AM 55.4 °F - 51.8 °F 88% 29.87 in 10.0 mi WNW 6.9 mph - N/A   Clear
1:33 AM 57.2 °F - 51.8 °F 82% 29.88 in 10.0 mi NW 6.9 mph - N/A   Mostly Cloudy
1:51 AM 55.4 °F - 50.0 °F 82% 29.89 in 10.0 mi NW 6.9 mph - N/A   Scattered Clouds
2:12 AM 55.4 °F - 46.4 °F 72% 29.90 in 10.0 mi NW 5.8 mph - N/A   Clear
2:33 AM 51.8 °F - 46.4 °F 82% 29.91 in 10.0 mi WNW 4.6 mph - N/A   Clear
2:51 AM 51.8 °F - 46.4 °F 82% 29.91 in 10.0 mi NW 3.5 mph - N/A   Clear
3:12 AM 50.0 °F - 46.4 °F 87% 29.90 in 10.0 mi West 4.6 mph - N/A   Clear
3:33 AM 48.2 °F - 46.4 °F 93% 29.91 in 10.0 mi Calm Calm - N/A   Clear
3:51 AM 50.0 °F - 46.4 °F 87% 29.91 in 10.0 mi Calm Calm - N/A   Clear
4:12 AM 48.2 °F - 46.4 °F 93% 29.91 in 10.0 mi Calm Calm - N/A   Clear
4:33 AM 46.4 °F - 44.6 °F 93% 29.92 in 10.0 mi Calm Calm - N/A   Clear
4:51 AM 46.4 °F - 44.6 °F 93% 29.93 in 10.0 mi Calm Calm - N/A   Clear
5:12 AM 44.6 °F - 44.6 °F 100% 29.93 in 7.0 mi Calm Calm - N/A   Clear
5:33 AM 46.4 °F - 44.6 °F 93% 29.93 in 7.0 mi Calm Calm - N/A   Clear
5:51 AM 46.4 °F - 44.6 °F 93% 29.94 in 10.0 mi Calm Calm - N/A   Clear
6:12 AM 44.6 °F - 44.6 °F 100% 29.95 in 10.0 mi Calm Calm - N/A   Clear
6:33 AM 44.6 °F 43.1 °F 44.6 °F 100% 29.95 in 7.0 mi SW 3.5 mph - N/A   Clear
6:54 AM 44.6 °F - 44.6 °F 100% 29.96 in 7.0 mi Calm Calm - N/A   Clear
7:12 AM 44.6 °F 43.1 °F 44.6 °F 100% 29.96 in 7.0 mi SW 3.5 mph - N/A   Clear
7:33 AM 44.6 °F - 44.6 °F 100% 29.97 in 5.0 mi Calm Calm - N/A   Clear
7:54 AM 44.6 °F 42.2 °F 44.6 °F 100% 29.98 in 5.0 mi SW 4.6 mph - N/A   Clear
8:12 AM 46.4 °F 45.2 °F 44.6 °F 93% 29.99 in 5.0 mi West 3.5 mph - N/A   Clear
8:33 AM 46.4 °F 45.2 °F 46.4 °F 100% 30.01 in 5.0 mi SSW 3.5 mph - N/A   Clear
8:54 AM 48.2 °F - 46.4 °F 93% 30.01 in 10.0 mi West 4.6 mph - N/A   Clear
9:12 AM 50.0 °F - 46.4 °F 87% 30.01 in 10.0 mi WNW 4.6 mph - N/A   Clear
9:33 AM 55.4 °F - 44.6 °F 67% 30.02 in 10.0 mi WNW 9.2 mph - N/A   Clear
9:54 AM 57.2 °F - 42.8 °F 59% 30.02 in 10.0 mi West 8.1 mph - N/A   Clear
10:12 AM 59.0 °F - 42.8 °F 55% 30.03 in 10.0 mi West 10.4 mph - N/A   Clear
10:33 AM 59.0 °F - 42.8 °F 55% 30.03 in 10.0 mi West 10.4 mph 16.1 mph N/A   Clear
10:54 AM 59.0 °F - 41.0 °F 51% 30.04 in 10.0 mi NW 6.9 mph - N/A   Clear
11:12 AM 60.8 °F - 41.0 °F 48% 30.03 in 10.0 mi WNW 8.1 mph 16.1 mph N/A   Clear
11:33 AM 62.6 °F - 42.8 °F 48% 30.04 in 10.0 mi NNW 5.8 mph - N/A   Clear
11:54 AM 62.6 °F - 42.8 °F 48% 30.03 in 10.0 mi NNW 6.9 mph - N/A   Clear
12:12 PM 62.6 °F - 41.0 °F 45% 30.03 in 10.0 mi West 8.1 mph - N/A   Clear
12:33 PM 62.6 °F - 41.0 °F 45% 30.03 in 10.0 mi West 12.7 mph 17.3 mph N/A   Clear
12:54 PM 64.4 °F - 41.0 °F 42% 30.02 in 10.0 mi WNW 11.5 mph - N/A   Clear
1:12 PM 64.4 °F - 41.0 °F 42% 30.01 in 10.0 mi WNW 8.1 mph - N/A   Clear
1:33 PM 64.4 °F - 41.0 °F 42% 30.01 in 10.0 mi NW 9.2 mph - N/A   Clear
1:54 PM 64.4 °F - 41.0 °F 42% 30.00 in 10.0 mi NW 9.2 mph - N/A   Clear
2:12 PM 64.4 °F - 41.0 °F 42% 30.00 in 10.0 mi WNW 11.5 mph - N/A   Clear
2:33 PM 64.4 °F - 41.0 °F 42% 30.00 in 10.0 mi West 5.8 mph - N/A   Clear
2:54 PM 64.4 °F - 39.2 °F 40% 29.99 in 10.0 mi West 9.2 mph - N/A   Clear
3:15 PM 64.4 °F - 39.2 °F 40% 29.99 in 10.0 mi West 10.4 mph - N/A   Clear
3:33 PM 64.4 °F - 39.2 °F 40% 29.99 in 10.0 mi NW 9.2 mph - N/A   Clear
3:54 PM 64.4 °F - 39.2 °F 40% 29.99 in 10.0 mi West 9.2 mph - N/A   Clear
4:15 PM 62.6 °F - 41.0 °F 45% 29.99 in 10.0 mi NW 8.1 mph - N/A   Clear
4:33 PM 62.6 °F - 39.2 °F 42% 29.99 in 10.0 mi WNW 4.6 mph - N/A   Clear
4:54 PM 62.6 °F - 41.0 °F 45% 29.99 in 10.0 mi NW 4.6 mph - N/A   Clear
5:15 PM 60.8 °F - 42.8 °F 52% 29.99 in 10.0 mi West 6.9 mph - N/A   Clear
5:33 PM 59.0 °F - 44.6 °F 59% 30.00 in 10.0 mi Calm Calm - N/A   Clear
5:54 PM 57.2 °F - 44.6 °F 63% 30.00 in 10.0 mi Calm Calm - N/A   Clear
6:15 PM 53.6 °F - 46.4 °F 77% 30.00 in 10.0 mi Calm Calm - N/A   Clear
6:33 PM 53.6 °F - 46.4 °F 77% 30.01 in 10.0 mi Calm Calm - N/A   Clear
6:54 PM 51.8 °F - 46.4 °F 82% 30.01 in 10.0 mi Calm Calm - N/A   Clear
7:15 PM 50.0 °F - 46.4 °F 87% 30.02 in 10.0 mi Calm Calm - N/A   Clear
7:33 PM 50.0 °F - 46.4 °F 87% 30.02 in 10.0 mi Calm Calm - N/A   Clear
7:54 PM 48.2 °F - 44.6 °F 87% 30.02 in 10.0 mi Calm Calm - N/A   Clear
8:15 PM 46.4 °F - 44.6 °F 93% 30.02 in 10.0 mi Calm Calm - N/A   Clear
8:33 PM 46.4 °F - 44.6 °F 93% 30.03 in 10.0 mi Calm Calm - N/A   Clear
8:54 PM 46.4 °F - 44.6 °F 93% 30.03 in 10.0 mi Calm Calm - N/A   Clear
9:15 PM 46.4 °F - 42.8 °F 87% 30.03 in 10.0 mi Calm Calm - N/A   Clear
9:33 PM 44.6 °F - 42.8 °F 93% 30.04 in 10.0 mi Calm Calm - N/A   Clear
9:54 PM 44.6 °F - 42.8 °F 93% 30.04 in 7.0 mi Calm Calm - N/A   Clear
10:15 PM 44.6 °F - 42.8 °F 93% 30.04 in 7.0 mi Calm Calm - N/A   Clear
10:33 PM 42.8 °F - 42.8 °F 100% 30.04 in 7.0 mi Calm Calm - N/A   Clear
10:54 PM 42.8 °F - 41.0 °F 93% 30.04 in 7.0 mi Calm Calm - N/A   Clear
11:15 PM 42.8 °F - 41.0 °F 93% 30.04 in 7.0 mi Calm Calm - N/A   Clear
11:36 PM 42.8 °F - 41.0 °F 93% 30.04 in 7.0 mi Calm Calm - N/A   Clear
11:54 PM 42.8 °F - 41.0 °F 93% 30.04 in 7.0 mi Calm Calm - N/A   Clear